[[{"header":{"parameterUnit":"m.s-1","parameterCategory":1,"la1":30.2991,"la2":30.254,"lo1":-89.0895,"lo2":-89.0444,"dy":0.0017,"dx":0.0017,"nx":28,"ny":28,"refTime":"2024-08-11T15:00:00:Z","depth":0,"parameterNumber":2,"parameterNumberName":"U-component_of_WINDS"},"data":[0,0,0,0,0,0,0,0,0,0,0,0,0,0,0,0,0,0,0,0,0,0,0,0,0,0,0,0,0,0,0,0,0,0,0,0,0,0,0,0,0,0,0,0,0,0,0,0,0,0,0,0,0,0,0,0,0,0,1.543,1.543,0,1.5431,1.5431,1.5431,1.538,1.5379,1.5378,1.5376,1.538,1.5382,1.5383,0,0,0,0,0,0,0,0,0,0,0,0,0,1.5387,1.5388,1.543,1.543,1.543,1.5431,1.5431,1.5431,1.5381,1.5379,1.5377,1.5376,1.538,1.5381,1.5383,0,0,0,0,0,0,0,0,0,0,0,0,0,1.5399,1.5388,1.543,1.5405,1.5403,1.5431,1.5431,1.5431,1.5381,1.5379,1.5377,1.5375,1.5379,1.5381,1.5383,1.5437,0,0,1.539,1.539,0,0,0,0,0,0,0,0,1.5398,1.54,1.5409,1.5407,1.5404,1.5403,1.5417,1.5433,1.5382,1.5389,1.5376,1.5374,1.539,1.5391,1.5396,1.5437,1.5437,1.539,1.5391,1.5392,1.5392,0,0,0,0,0,0,0,1.5397,1.54,1.543,1.5409,1.5406,1.5395,1.5394,1.542,1.5401,1.5388,1.5385,1.5385,1.5388,1.5394,1.5395,1.5437,1.539,1.5391,1.5393,1.5394,1.5524,1.5526,0,0,0,0,0,0,1.54,1.54,1.543,1.543,1.5396,1.5397,1.5396,1.5406,1.5401,1.5398,1.5387,1.5383,1.5391,1.5393,1.5395,1.5458,1.5392,1.5394,1.5395,1.5522,1.5524,1.5527,0,0,0,0,0,0,1.5399,1.5403,1.543,1.5414,1.5417,1.54,1.5411,1.5407,1.5412,1.54,1.5396,1.5396,1.539,1.5392,1.5427,1.5458,1.5395,1.5397,1.5519,1.5523,1.5526,1.5585,0,0,0,0,0,0,1.5398,1.5403,1.5422,1.5415,1.5418,1.5461,1.5413,1.5408,1.5416,1.541,1.5407,1.5405,1.5388,1.5424,1.5429,1.546,1.5398,1.5516,1.5521,1.5525,1.558,1.559,1.5598,0,0,0,0,0,1.5396,1.5439,1.5423,1.5427,1.5441,1.5463,1.5465,1.5444,1.5418,1.5438,1.543,1.5405,1.5454,1.5428,1.5433,1.5465,1.5514,1.5519,1.5524,1.5576,1.5588,1.5598,0,0,0,0,0,0,1.5451,1.5437,1.542,1.5461,1.5464,1.5454,1.5479,1.5457,1.5468,1.5462,1.5438,1.5437,1.5476,1.5474,1.5446,1.5517,1.548,1.5486,1.5517,1.5528,1.5537,1.5537,1.54,0,0,0,0,0,1.5467,1.5485,1.5473,1.5511,1.5513,1.5496,1.5504,1.5489,1.549,1.5491,1.5486,1.5489,1.5505,1.5517,1.5531,1.5579,1.5579,1.5604,1.5613,1.562,1.5626,1.5653,1.5665,1.5543,1.5543,1.5543,0,0,1.5502,1.5497,1.551,1.5521,1.5521,1.5542,1.5497,1.552,1.5535,1.5495,1.5527,1.5524,1.5526,1.5568,1.5587,1.5567,1.566,1.5627,1.5633,1.5635,1.566,1.5671,1.5681,1.5547,1.5546,1.5546,0,0,1.5576,1.5573,1.5605,1.5606,1.5606,1.5595,1.5603,1.5597,1.5593,1.5625,1.5596,1.5614,1.5642,1.5645,1.5651,1.5727,1.5705,1.5733,1.578,1.5807,1.5817,1.5825,1.5853,1.5864,1.5739,1.5739,1.5739,0,1.5619,1.5648,1.5624,1.5649,1.5656,1.562,1.5653,1.5655,1.5661,1.5667,1.5645,1.5681,1.5679,1.5723,1.5742,1.5747,1.5756,1.5733,1.5817,1.5825,1.5832,1.5859,1.587,1.5742,1.5742,1.5742,1.5741,0,1.5702,1.5722,1.5748,1.5753,1.5763,1.5792,1.5774,1.5786,1.577,1.5762,1.5796,1.5793,1.5807,1.5816,1.58,1.5857,1.5846,1.5821,1.5783,1.5848,1.5873,1.5883,1.5747,1.5746,1.5745,1.5744,0,0,1.5809,1.5802,1.5812,1.5815,1.5813,1.5829,1.5857,1.587,1.5882,1.5887,1.5911,1.5936,1.5913,1.592,1.5904,1.5928,1.599,1.59,1.59,1.5918,1.6054,1.6074,1.6086,1.5975,1.5977,1.5978,1.6055,0,1.5882,1.5928,1.5908,1.5957,1.5976,1.5944,1.5968,1.5971,1.5964,1.598,1.5972,1.5991,1.5959,1.5963,1.5984,1.5978,1.6017,1.5972,1.5998,1.5999,1.5999,1.6099,1.6119,1.6191,1.6064,1.6066,1.6067,0,1.5972,1.5981,1.6032,1.6028,1.6035,1.6057,1.6068,1.6084,1.6086,1.608,1.6088,1.6067,1.6096,1.6058,1.6097,1.6067,1.6077,1.6075,1.6078,1.608,1.6037,1.6104,1.6213,1.6224,1.6082,1.608,1.6079,0,1.6047,1.6072,1.6105,1.6109,1.6105,1.6121,1.6121,1.6121,1.6131,1.6141,1.6147,1.616,1.6168,1.6179,1.6164,1.6137,1.6206,1.6166,1.6203,1.6203,1.6219,1.6218,1.6332,1.6224,1.6224,1.6224,1.6224,0,1.613,1.6163,1.6139,1.616,1.6196,1.6174,1.621,1.6206,1.6207,1.6228,1.62,1.622,1.6198,1.6217,1.6205,1.624,1.6244,1.624,1.6237,1.6243,1.6244,1.6249,1.6244,1.6227,1.6226,1.6225,1.6225,0,1.622,1.6205,1.624,1.6234,1.6233,1.626,1.6255,1.6275,1.6266,1.6292,1.6297,1.6284,1.6304,1.629,1.631,1.6302,1.6349,1.6338,1.6348,1.6346,1.6383,1.638,1.6505,1.652,1.6402,1.6403,1.6404,0,1.6275,1.6299,1.6295,1.6307,1.6308,1.6326,1.6336,1.6315,1.6326,1.6332,1.6352,1.6369,1.6383,1.6417,1.641,1.6426,1.6416,1.6458,1.6418,1.6424,1.6417,1.6416,1.6419,1.6467,1.6468,1.6469,1.647,0,1.6373,1.6365,1.6379,1.6392,1.6403,1.6412,1.6419,1.643,1.6409,1.6424,1.6444,1.6454,1.6475,1.6494,1.6507,1.6507,1.6486,1.6483,1.6492,1.6499,1.6504,1.6503,1.6371,1.648,1.6479,1.6478,1.6478,1.6477,1.6448,1.6468,1.6469,1.6486,1.6489,1.6496,1.6515,1.6509,1.6525,1.654,1.6527,1.6551,1.6555,1.657,1.6574,1.6593,1.6576,1.6589,1.6593,1.6597,1.6602,1.65,1.6596,1.6595,1.6595,1.6595,1.6594,0,1.6546,1.6545,1.6561,1.6571,1.6585,1.6563,1.657,1.6583,1.6605,1.6609,1.6623,1.6647,1.6665,1.666,1.6676,1.6693,1.6684,1.6698,1.6697,1.6698,1.6616,1.6607,1.6705,1.6705,1.6705,1.6705,1.6705,1.6705,1.6599,1.6633,1.6625,1.666,1.6659,1.6683,1.6688,1.6695,1.6699,1.6727,1.6742,1.6738,1.6739,1.6755,1.6771,1.6769,1.6777,1.6795,1.679,1.6714,1.6703,1.6693,1.6684,1.6797,1.6797,1.687,1.6871,1.6871]},{"header":{"parameterUnit":"m.s-1","parameterCategory":1,"la1":30.2991,"la2":30.254,"lo1":-89.0895,"lo2":-89.0444,"dy":0.0017,"dx":0.0017,"nx":28,"ny":28,"refTime":"2024-08-11T15:00:00:Z","depth":0,"parameterNumber":3,"parameterNumberName":"V-component_of_WINDS"},"data":[0,0,0,0,0,0,0,0,0,0,0,0,0,0,0,0,0,0,0,0,0,0,0,0,0,0,0,0,0,0,0,0,0,0,0,0,0,0,0,0,0,0,0,0,0,0,0,0,0,0,0,0,0,0,0,0,0,0,-0.8038,-0.8038,0,-0.8022,-0.8022,-0.8022,-0.8011,-0.8011,-0.8011,-0.8011,-0.7993,-0.7993,-0.7992,0,0,0,0,0,0,0,0,0,0,0,0,0,-0.806,-0.806,-0.8038,-0.8038,-0.8038,-0.8022,-0.8022,-0.8022,-0.8011,-0.8011,-0.8011,-0.8011,-0.7993,-0.7993,-0.7992,0,0,0,0,0,0,0,0,0,0,0,0,0,-0.8048,-0.8059,-0.8038,-0.8031,-0.803,-0.8022,-0.8022,-0.8022,-0.8011,-0.8011,-0.8011,-0.8011,-0.7993,-0.7993,-0.7992,-0.7991,0,0,-0.799,-0.799,0,0,0,0,0,0,0,0,-0.8049,-0.8047,-0.8032,-0.8031,-0.803,-0.8018,-0.8023,-0.8011,-0.8011,-0.8018,-0.8011,-0.801,-0.8002,-0.8,-0.7998,-0.799,-0.7989,-0.799,-0.799,-0.799,-0.799,0,0,0,0,0,0,0,-0.8049,-0.8048,-0.8032,-0.8032,-0.8031,-0.8028,-0.8026,-0.8021,-0.8011,-0.8017,-0.8017,-0.8015,-0.8001,-0.7998,-0.7997,-0.7989,-0.799,-0.799,-0.799,-0.7989,-0.7982,-0.7982,0,0,0,0,0,0,-0.8051,-0.8048,-0.8032,-0.8031,-0.8039,-0.8028,-0.8026,-0.8022,-0.8011,-0.8009,-0.8015,-0.8014,-0.7999,-0.7998,-0.7996,-0.7995,-0.799,-0.7989,-0.7989,-0.7981,-0.7982,-0.7982,0,0,0,0,0,0,-0.8052,-0.805,-0.8033,-0.804,-0.8037,-0.8028,-0.8024,-0.8022,-0.8019,-0.8009,-0.8007,-0.8014,-0.7999,-0.7997,-0.7993,-0.7994,-0.7989,-0.7988,-0.7981,-0.7982,-0.7982,-0.7992,0,0,0,0,0,0,-0.8053,-0.805,-0.805,-0.804,-0.8037,-0.803,-0.8024,-0.8022,-0.8018,-0.8017,-0.8007,-0.8005,-0.7999,-0.7994,-0.7992,-0.7993,-0.7988,-0.7981,-0.7981,-0.7982,-0.7992,-0.7993,-0.7994,0,0,0,0,0,-0.8053,-0.8053,-0.805,-0.8048,-0.8036,-0.803,-0.8028,-0.8021,-0.8018,-0.8018,-0.8011,-0.8006,-0.7995,-0.7993,-0.7992,-0.7993,-0.7981,-0.7981,-0.7982,-0.7991,-0.7993,-0.7994,0,0,0,0,0,0,-0.8062,-0.8051,-0.8048,-0.8044,-0.8038,-0.8028,-0.8027,-0.8022,-0.8017,-0.8016,-0.8007,-0.8005,-0.8002,-0.7997,-0.7996,-0.7992,-0.7987,-0.7987,-0.7995,-0.7996,-0.7997,-0.7999,-0.7987,0,0,0,0,0,-0.8064,-0.806,-0.805,-0.8048,-0.8045,-0.8037,-0.8034,-0.8029,-0.8022,-0.8019,-0.8013,-0.8006,-0.8002,-0.7999,-0.7993,-0.7991,-0.7989,-0.7991,-0.7992,-0.7993,-0.7993,-0.7993,-0.7994,-0.7983,-0.7983,-0.7983,0,0,-0.8066,-0.806,-0.8058,-0.8049,-0.8044,-0.8041,-0.8034,-0.8031,-0.8028,-0.8019,-0.8015,-0.801,-0.8002,-0.7999,-0.7997,-0.7995,-0.7996,-0.7993,-0.7994,-0.7994,-0.7993,-0.7994,-0.7995,-0.7983,-0.7983,-0.7983,0,0,-0.807,-0.8064,-0.8062,-0.8058,-0.8051,-0.8045,-0.8045,-0.8036,-0.8033,-0.8029,-0.8022,-0.8019,-0.801,-0.8006,-0.8002,-0.8006,-0.8001,-0.8005,-0.801,-0.801,-0.8011,-0.8012,-0.8014,-0.8015,-0.8005,-0.8005,-0.8005,0,-0.8074,-0.8069,-0.8062,-0.8059,-0.8056,-0.8048,-0.8046,-0.8042,-0.8033,-0.8032,-0.8029,-0.8019,-0.8014,-0.801,-0.8011,-0.8008,-0.8008,-0.8006,-0.8011,-0.8012,-0.8013,-0.8015,-0.8016,-0.8006,-0.8006,-0.8005,-0.8005,0,-0.8075,-0.8072,-0.8071,-0.8064,-0.806,-0.8058,-0.8051,-0.8048,-0.8044,-0.8039,-0.8036,-0.8029,-0.8023,-0.8022,-0.8017,-0.8018,-0.8017,-0.8013,-0.8008,-0.8014,-0.8016,-0.8017,-0.8006,-0.8006,-0.8006,-0.8006,0,0,-0.8082,-0.8073,-0.8073,-0.807,-0.8063,-0.806,-0.8057,-0.8052,-0.8051,-0.8046,-0.8044,-0.8038,-0.8035,-0.8031,-0.8026,-0.8026,-0.8031,-0.8022,-0.8021,-0.8024,-0.8033,-0.8036,-0.8037,-0.8027,-0.8028,-0.8028,-0.8034,0,-0.8085,-0.8081,-0.8076,-0.8073,-0.8071,-0.8064,-0.8063,-0.8058,-0.8054,-0.8051,-0.8046,-0.8043,-0.8038,-0.8036,-0.8035,-0.803,-0.8032,-0.803,-0.8026,-0.8026,-0.8029,-0.8038,-0.8042,-0.8048,-0.8034,-0.8035,-0.8035,0,-0.8088,-0.8084,-0.8082,-0.8076,-0.8075,-0.8073,-0.8069,-0.8066,-0.8061,-0.8059,-0.8055,-0.805,-0.8048,-0.8044,-0.8042,-0.804,-0.8038,-0.8036,-0.8036,-0.8035,-0.8031,-0.8039,-0.8049,-0.8051,-0.8036,-0.8035,-0.8035,0,-0.8095,-0.8089,-0.8087,-0.8085,-0.8078,-0.8077,-0.8074,-0.8069,-0.8067,-0.8064,-0.8062,-0.8058,-0.8056,-0.8053,-0.8048,-0.8045,-0.8046,-0.8041,-0.8044,-0.8045,-0.8045,-0.8045,-0.8056,-0.8043,-0.8043,-0.8043,-0.8043,0,-0.8099,-0.8098,-0.8091,-0.809,-0.8089,-0.8083,-0.8082,-0.8079,-0.8075,-0.8073,-0.8067,-0.8066,-0.8058,-0.8057,-0.8052,-0.8051,-0.805,-0.8048,-0.8047,-0.8049,-0.8049,-0.8048,-0.8048,-0.8043,-0.8043,-0.8043,-0.8043,0,-0.8106,-0.8101,-0.8099,-0.8093,-0.8092,-0.8091,-0.8086,-0.8086,-0.8082,-0.808,-0.8079,-0.8073,-0.8071,-0.8065,-0.8061,-0.8058,-0.8059,-0.8056,-0.8061,-0.806,-0.8064,-0.8064,-0.8074,-0.8076,-0.8062,-0.8062,-0.8062,0,-0.8109,-0.8108,-0.8103,-0.8102,-0.8099,-0.8097,-0.8096,-0.809,-0.8089,-0.8084,-0.8084,-0.8082,-0.8079,-0.8076,-0.8071,-0.8068,-0.8066,-0.807,-0.8066,-0.8068,-0.8067,-0.8068,-0.8068,-0.8071,-0.8071,-0.8071,-0.8072,0,-0.8115,-0.8113,-0.8111,-0.8108,-0.8107,-0.8104,-0.8102,-0.8101,-0.8095,-0.8094,-0.8092,-0.809,-0.8087,-0.8085,-0.8082,-0.8079,-0.8075,-0.8073,-0.8074,-0.8076,-0.8079,-0.8079,-0.8064,-0.8073,-0.8073,-0.8073,-0.8073,-0.8073,-0.812,-0.812,-0.8117,-0.8115,-0.8113,-0.8111,-0.8111,-0.8107,-0.8106,-0.8103,-0.81,-0.8099,-0.8095,-0.8091,-0.8089,-0.8088,-0.8085,-0.8086,-0.8086,-0.8087,-0.8088,-0.8079,-0.8087,-0.8087,-0.8087,-0.8087,-0.8087,0,-0.8127,-0.8125,-0.8123,-0.8121,-0.812,-0.8117,-0.8114,-0.8114,-0.8113,-0.811,-0.8109,-0.8107,-0.8106,-0.8101,-0.81,-0.81,-0.8098,-0.81,-0.81,-0.8099,-0.809,-0.809,-0.8101,-0.8101,-0.8101,-0.8101,-0.8101,-0.8101,-0.813,-0.813,-0.8128,-0.8128,-0.8126,-0.8125,-0.8124,-0.8123,-0.8121,-0.812,-0.8119,-0.8116,-0.8114,-0.8112,-0.811,-0.8109,-0.8109,-0.8112,-0.811,-0.8101,-0.81,-0.8099,-0.8099,-0.8112,-0.8112,-0.812,-0.812,-0.812]}]]